Location: Blackpool
(53.8200°N, 3.0410°W)
Time: 16:45:18
(UTC+01:00)

Amateur Radio Satellites - All Passes

Search period start: 22 October 2017 16:15
Search period end: 23 October 2017 16:15
Location: Blackpool, 53.8200°N, 3.0410°W

Satellite Date Start Highest point End Downlink Frequencies (MHz)
Time Altitude Azimuth
DX 1 22 Oct 16:19:49 16:23:33 28° 299° (WNW) 16:27:15 434.975-435.025
BEESAT 3 22 Oct 16:26:05 16:28:50 17° 356° (N) 16:31:35 437.485
CUBESAT XI-V 22 Oct 16:27:51 16:30:56 17° 88° (E) 16:34:01 437.345
CUTE-I 22 Oct 16:34:08 16:37:35 18° 49° (NE) 16:41:02 437.470
UKube-1 22 Oct 16:39:20 16:42:58 27° 300° (WNW) 16:46:36 .
XW-2F 22 Oct 16:40:07 16:41:17 11° 54° (NE) 16:42:27 145.980 - 146.000
PCSat 22 Oct 16:46:20 16:51:49 86° 50° (NE) 16:57:15 145.827
LilacSat-2 22 Oct 16:48:48 16:51:00 15° 57° (ENE) 16:53:13 437.200
HO-68 22 Oct 16:49:29 16:54:26 21° 40° (NE) 16:59:24 435.675
XW-2D 22 Oct 16:52:59 16:55:16 16° 58° (ENE) 16:57:34 145.860 - 145.880
SO-50 22 Oct 16:54:34 16:56:20 12° 250° (WSW) 16:58:09 436.795
ITUPSAT 1 22 Oct 16:59:54 17:04:45 87° 102° (ESE) 17:09:33 437.325
XW-2B 22 Oct 17:05:58 17:08:43 19° 60° (ENE) 17:11:27 145.730 - 145.750
AO-85 22 Oct 17:11:41 17:14:44 20° 352° (N) 17:17:55 145.980
AO-7 22 Oct 17:12:19 17:19:11 28° 269° (W) 17:26:06 .
BEESAT 22 Oct 17:13:59 17:18:48 72° 288° (WNW) 17:23:33 436.000
DOVE 4 22 Oct 17:19:40 17:23:56 88° 85° (E) 17:28:30 437.250
KKS-1 22 Oct 17:22:20 17:25:19 17° 89° (E) 17:28:17 437.445
XW-2C 22 Oct 17:28:36 17:31:57 30° 65° (ENE) 17:35:18 145.795 - 145.815
ITAMSAT 1 22 Oct 17:29:05 17:32:23 17° 273° (W) 17:35:41 435.822/435.867
CUTE 1.7 + AOD 2 22 Oct 17:33:19 17:35:09 13° 53° (NE) 17:37:01 437.475
MOZHAYETS 4 22 Oct 17:47:37 17:51:44 33° 297° (WNW) 17:55:49
STARS 22 Oct 17:49:15 17:51:36 14° 87° (E) 17:53:55 437.465
BEESAT 2 22 Oct 17:52:31 17:55:21 18° 5° (N) 17:58:09 435.950
UWE-3 22 Oct 17:55:21 17:56:06 10° 48° (NE) 17:56:53 435.000/436.395/437.385
CUBESAT XI-V 22 Oct 18:04:15 18:08:52 76° 288° (WNW) 18:13:28 437.345
BEESAT 3 22 Oct 18:04:26 18:07:39 22° 19° (NNE) 18:10:50 437.485
YUBILEINY 22 Oct 18:04:56 18:10:31 18° 40° (NE) 18:16:06 435.215
KAITUO 1B 22 Oct 18:05:25 18:09:03 52° 70° (ENE) 18:12:40 145.475/437.950
XW-2F 22 Oct 18:10:59 18:14:44 74° 73° (ENE) 18:18:30 145.980 - 146.000
CUTE-I 22 Oct 18:11:31 18:16:49 74° 70° (ENE) 18:22:11 437.470
NUDT-PHONESAT 22 Oct 18:15:46 18:19:26 64° 73° (ENE) 18:23:07 437.300
LilacSat-2 22 Oct 18:20:59 18:24:48 78° 256° (WSW) 18:28:38 437.200
XW-2D 22 Oct 18:25:12 18:28:59 73° 256° (WSW) 18:32:47 145.860 - 145.880
PCSat 22 Oct 18:30:32 18:34:37 22° 251° (WSW) 18:38:39 145.827
HO-68 22 Oct 18:33:53 18:40:55 61° 63° (ENE) 18:47:59 435.675
ITUPSAT 1 22 Oct 18:38:39 18:42:00 19° 307° (NW) 18:45:21 437.325
XW-2B 22 Oct 18:38:51 18:42:34 54° 259° (W) 18:46:19 145.730 - 145.750
AO-73 22 Oct 18:39:08 18:41:02 13° 51° (NE) 18:42:58 145.935
BEESAT 22 Oct 18:53:02 18:55:48 15° 310° (NW) 18:58:32 436.000
AO-85 22 Oct 18:53:05 18:56:28 22° 16° (NNE) 19:00:03 145.980
CUBEBUG 2 22 Oct 18:53:53 18:58:17 40° 65° (ENE) 19:02:44 437.445
KKS-1 22 Oct 18:57:54 19:02:24 75° 288° (WNW) 19:06:53 437.445
DOVE 4 22 Oct 19:00:12 19:02:25 14° 276° (W) 19:04:41 437.250
ZACube-1 22 Oct 19:00:56 19:04:12 20° 57° (ENE) 19:07:27 437.345
XW-2C 22 Oct 19:02:42 19:06:07 31° 264° (W) 19:09:32 145.795 - 145.815
CUTE 1.7 + AOD 2 22 Oct 19:06:04 19:10:17 72° 72° (ENE) 19:14:30 437.475
SEEDS 22 Oct 19:08:52 19:12:54 50° 69° (ENE) 19:16:57 437.485
XW-2A 22 Oct 19:14:12 19:17:16 32° 67° (ENE) 19:20:20 145.665 - 145.685
STARS 22 Oct 19:24:07 19:28:36 89° 124° (SE) 19:33:03 437.465
AAUSAT CUBESAT 2 22 Oct 19:26:01 19:29:47 37° 66° (ENE) 19:33:35 437.432
UWE-3 22 Oct 19:27:03 19:31:31 47° 68° (ENE) 19:36:01 435.000/436.395/437.385
BEESAT 2 22 Oct 19:30:33 19:34:12 30° 28° (NNE) 19:37:50 435.950
Oscar 11 22 Oct 19:33:26 19:36:48 22° 60° (ENE) 19:40:10 .
KAITUO 1B 22 Oct 19:40:45 19:43:19 18° 269° (W) 19:45:55 145.475/437.950
BEESAT 3 22 Oct 19:41:52 19:45:53 66° 42° (NE) 19:49:48 437.485
CUBESAT XI-V 22 Oct 19:42:57 19:45:31 15° 308° (NW) 19:48:05 437.345
XW-2F 22 Oct 19:47:29 19:49:21 13° 273° (W) 19:51:13 145.980 - 146.000
STRAND 1 22 Oct 19:49:46 19:53:55 24° 91° (E) 19:58:03 437.568
NUDT-PHONESAT 22 Oct 19:51:34 19:53:42 15° 271° (W) 19:55:51 437.300
CUTE-I 22 Oct 19:53:21 19:57:26 22° 270° (W) 20:01:34 437.470
YUBILEINY 22 Oct 20:01:19 20:09:54 53° 68° (ENE) 20:18:29 435.215
AO-73 22 Oct 20:11:56 20:16:26 62° 71° (ENE) 20:20:55 145.935
HO-68 22 Oct 20:22:28 20:29:02 38° 265° (W) 20:35:40 435.675
CUBEBUG 2 22 Oct 20:30:36 20:34:56 35° 265° (W) 20:39:21 437.445
DELFI C3 22 Oct 20:33:08 20:35:59 20° 60° (ENE) 20:38:51 145.870
AO-85 22 Oct 20:33:23 20:37:40 56° 38° (NE) 20:42:18 145.980
FO-29 22 Oct 20:33:52 20:38:39 19° 85° (E) 20:43:42 435.910
ZACube-1 22 Oct 20:35:24 20:40:00 78° 257° (WSW) 20:44:35 437.345
KKS-1 22 Oct 20:35:47 20:38:15 15° 308° (NW) 20:40:43 437.445
EO-88 22 Oct 20:43:09 20:45:03 14° 57° (ENE) 20:46:57 145.990 - 145.960
CUTE 1.7 + AOD 2 22 Oct 20:43:54 20:46:36 16° 272° (W) 20:49:17 437.475
SEEDS 22 Oct 20:45:35 20:48:52 22° 269° (W) 20:52:09 437.485
XW-2A 22 Oct 20:47:12 20:50:02 24° 266° (W) 20:52:52 145.665 - 145.685
Max Valier Satellite 22 Oct 20:57:09 21:00:08 23° 63° (ENE) 21:03:07 145.860
STARS 22 Oct 21:01:30 21:04:21 17° 306° (NW) 21:07:12 437.465
AAUSAT CUBESAT 2 22 Oct 21:01:43 21:05:19 29° 266° (W) 21:08:57 437.432
O/OREOS (USA 219) 22 Oct 21:02:45 21:07:11 50° 113° (ESE) 21:11:40 437.305
UWE-3 22 Oct 21:04:06 21:08:09 29° 267° (W) 21:12:14 435.000/436.395/437.385
BEESAT 2 22 Oct 21:08:12 21:12:16 68° 229° (SW) 21:16:15 435.950
Oscar 11 22 Oct 21:08:20 21:12:37 58° 259° (W) 21:16:55 .
BEESAT 3 22 Oct 21:19:58 21:23:05 22° 242° (WSW) 21:26:09 437.485
STRAND 1 22 Oct 21:28:25 21:33:34 66° 291° (WNW) 21:38:40 437.568
AO-73 22 Oct 21:49:33 21:53:03 21° 270° (W) 21:56:32 145.935
ESTCUBE 1 22 Oct 21:57:42 22:00:17 15° 53° (NE) 22:02:52 437.505/2401.250
YUBILEINY 22 Oct 21:58:25 22:06:44 49° 272° (W) 22:15:04 435.215
UNISAT 6 22 Oct 22:02:12 22:05:23 18° 88° (E) 22:08:31 437.425
DELFI C3 22 Oct 22:06:33 22:10:24 57° 259° (W) 22:14:18 145.870
AO-85 22 Oct 22:13:57 22:17:58 33° 238° (WSW) 22:22:16 145.980
EO-88 22 Oct 22:14:32 22:18:11 80° 256° (WSW) 22:21:52 145.990 - 145.960
ZACube-1 22 Oct 22:15:04 22:17:02 13° 276° (W) 22:19:01 437.345
TIGRISAT 22 Oct 22:16:02 22:19:39 22° 90° (E) 22:23:10 435.000
FO-29 22 Oct 22:17:51 22:24:39 75° 104° (ESE) 22:32:13 435.910
PRISM 22 Oct 22:23:41 22:25:08 12° 86° (E) 22:26:34 437.425
Max Valier Satellite 22 Oct 22:30:13 22:33:46 41° 262° (W) 22:37:20 145.860
RS-15 22 Oct 22:34:19 22:37:32 11° 87° (E) 22:40:43 29.354- 29.394
O/OREOS (USA 219) 22 Oct 22:42:42 22:46:49 32° 314° (NW) 22:50:59 437.305
BEESAT 2 22 Oct 22:47:53 22:49:13 11° 249° (WSW) 22:50:34 435.950
LO-87 22 Oct 22:56:11 22:59:39 46° 70° (ENE) 23:03:10 145.935 - 145.965
STRAND 1 22 Oct 23:08:55 23:11:52 16° 312° (NW) 23:14:48 437.568
VELOX 1 22 Oct 23:12:39 23:15:19 16° 53° (NE) 23:18:00 145.980
ESTCUBE 1 22 Oct 23:31:56 23:36:25 80° 73° (ENE) 23:40:56 437.505/2401.250
UNISAT 6 22 Oct 23:37:59 23:42:39 73° 288° (WNW) 23:47:10 437.425
SPROUT 22 Oct 23:43:01 23:46:50 32° 64° (ENE) 23:50:42 437.525
AIST 2D 22 Oct 23:47:08 23:49:49 20° 92° (E) 23:52:29 435.315
TIGRISAT 22 Oct 23:52:08 23:56:44 60° 290° (WNW) 00:01:11 435.000
PRISM 22 Oct 23:56:56 00:01:05 83° 105° (ESE) 00:05:13 437.425
YUBILEINY 22 Oct 23:58:07 00:01:15 12° 297° (WNW) 00:04:24 435.215
FO-29 23 Oct 00:03:31 00:09:19 33° 303° (WNW) 00:15:41 435.910
EO-79 23 Oct 00:04:25 00:06:56 15° 87° (E) 00:09:26 145.935-145.965
POLYITAN 1 23 Oct 00:09:42 00:12:29 17° 88° (E) 00:15:15 437.675
DX 1 23 Oct 00:10:46 00:13:29 16° 54° (NE) 00:16:12 434.975-435.025
O/OREOS (USA 219) 23 Oct 00:26:16 00:27:44 11° 338° (NNW) 00:29:13 437.305
UKube-1 23 Oct 00:29:26 00:32:07 16° 54° (NE) 00:34:48 .
QB50P2 23 Oct 00:29:35 00:33:16 27° 94° (E) 00:36:53 145.880/145.840
NANOSAT C BR1 23 Oct 00:30:18 00:33:43 23° 92° (E) 00:37:06 145.865
LO-87 23 Oct 00:30:41 00:33:19 19° 269° (W) 00:35:58 145.935 - 145.965
RS-15 23 Oct 00:35:08 00:46:26 45° 112° (ESE) 00:57:38 29.354- 29.394
50 SAT 23 Oct 00:35:35 00:38:02 20° 62° (ENE) 00:40:31 437.505
DUCHIFAT 1 23 Oct 00:39:29 00:43:01 25° 93° (E) 00:46:30 145.980
VELOX 1 23 Oct 00:46:45 00:51:09 87° 73° (ENE) 00:55:35 145.980
ESTCUBE 1 23 Oct 01:11:02 01:13:49 16° 272° (W) 01:16:36 437.505/2401.250
BEESAT 23 Oct 01:15:59 01:17:01 11° 45° (NE) 01:18:03 436.000
UNISAT 6 23 Oct 01:16:01 01:18:35 15° 308° (NW) 01:21:05 437.425
SPROUT 23 Oct 01:18:43 01:22:42 37° 263° (W) 01:26:44 437.525
AIST 2D 23 Oct 01:19:53 01:23:09 38° 291° (WNW) 01:26:24 435.315
TIGRISAT 23 Oct 01:30:33 01:32:30 13° 311° (NW) 01:34:27 435.000
PRISM 23 Oct 01:33:15 01:35:50 16° 305° (NW) 01:38:26 437.425
Oscar 19 23 Oct 01:36:26 01:39:48 17° 87° (E) 01:43:09 437.125/150
EO-79 23 Oct 01:38:57 01:43:15 79° 287° (WNW) 01:47:30 145.935-145.965
MOZHAYETS 4 23 Oct 01:43:26 01:46:13 16° 53° (NE) 01:49:00
POLYITAN 1 23 Oct 01:44:28 01:48:46 71° 288° (WNW) 01:52:59 437.675
DX 1 23 Oct 01:44:45 01:49:05 89° 252° (WSW) 01:53:28 434.975-435.025
FO-29 23 Oct 01:51:11 01:52:37 11° 326° (NW) 01:54:04 435.910
UKube-1 23 Oct 02:03:15 02:07:33 89° 253° (WSW) 02:11:55 .
QB50P2 23 Oct 02:05:08 02:09:12 43° 293° (WNW) 02:13:14 145.880/145.840
NANOSAT C BR1 23 Oct 02:05:33 02:09:41 50° 292° (WNW) 02:13:47 145.865
50 SAT 23 Oct 02:07:05 02:10:09 37° 261° (W) 02:13:15 437.505
BUGSAT 1 23 Oct 02:11:50 02:16:01 54° 101° (E) 02:20:09 437.445
DUCHIFAT 1 23 Oct 02:14:48 02:18:54 47° 292° (WNW) 02:22:56 145.980
VELOX 1 23 Oct 02:25:49 02:28:14 14° 273° (W) 02:30:40 145.980
Gurwin Techsat 1B 23 Oct 02:27:56 02:32:42 32° 94° (E) 02:37:27 435.225
ITUPSAT 1 23 Oct 02:35:41 02:40:04 36° 62° (ENE) 02:44:29 437.325
RS-15 23 Oct 02:45:49 02:58:16 81° 319° (NW) 03:10:30 29.354- 29.394
M-CUBED/EXP-1 PRIME 23 Oct 02:48:02 02:51:10 28° 104° (ESE) 02:54:27 437.505
BEESAT 23 Oct 02:49:08 02:53:42 46° 65° (ENE) 02:58:18 436.000
AO-7 23 Oct 03:12:18 03:17:49 19° 84° (E) 03:23:19 .
Oscar 19 23 Oct 03:14:41 03:19:50 88° 291° (WNW) 03:24:58 437.125/150
EO-79 23 Oct 03:16:04 03:18:20 14° 307° (NW) 03:20:36 145.935-145.965
MOZHAYETS 4 23 Oct 03:18:03 03:22:42 81° 74° (ENE) 03:27:21
POLYITAN 1 23 Oct 03:21:49 03:23:48 13° 308° (NW) 03:25:46 437.675
DX 1 23 Oct 03:23:47 03:25:56 13° 273° (W) 03:28:06 434.975-435.025
CUBESAT XI-V 23 Oct 03:36:53 03:41:05 35° 64° (ENE) 03:45:16 437.345
UKube-1 23 Oct 03:42:10 03:44:14 13° 273° (W) 03:46:20 .
BUGSAT 1 23 Oct 03:47:43 03:51:05 23° 301° (WNW) 03:54:24 437.445
O/OREOS (USA 219) 23 Oct 03:48:20 03:51:02 15° 30° (NNE) 03:53:45 437.305
NO-84 23 Oct 03:49:32 03:53:30 38° 146° (SE) 03:57:25 435.350 FM
ITAMSAT 1 23 Oct 03:53:44 03:57:37 21° 89° (E) 04:01:29 435.822/435.867
Gurwin Techsat 1B 23 Oct 04:07:44 04:12:54 51° 294° (WNW) 04:18:01 435.225
ITUPSAT 1 23 Oct 04:13:20 04:17:52 40° 262° (W) 04:22:26 437.325
M-CUBED/EXP-1 PRIME 23 Oct 04:22:27 04:25:38 33° 300° (WNW) 04:28:59 437.505
KKS-1 23 Oct 04:26:01 04:30:03 35° 63° (ENE) 04:34:07 437.445
BEESAT 23 Oct 04:27:25 04:31:39 31° 265° (W) 04:35:55 436.000
STARS 23 Oct 04:51:14 04:55:00 28° 61° (ENE) 04:58:48 437.465
Oscar 19 23 Oct 04:54:56 04:58:32 20° 308° (NW) 05:02:07 437.125/150
MOZHAYETS 4 23 Oct 04:57:28 05:00:27 17° 273° (W) 05:03:26
RS-15 23 Oct 05:00:34 05:12:34 52° 350° (N) 05:24:12 29.354- 29.394
AO-7 23 Oct 05:03:53 05:12:12 70° 107° (ESE) 05:20:29 .
DOVE 4 23 Oct 05:11:48 05:15:14 18° 88° (E) 05:18:44 437.250
CUBESAT XI-V 23 Oct 05:14:09 05:18:26 37° 263° (W) 05:22:45 437.345
NO-84 23 Oct 05:26:27 05:30:45 89° 346° (NNW) 05:34:52 435.350 FM
O/OREOS (USA 219) 23 Oct 05:27:01 05:31:33 52° 54° (NE) 05:36:03 437.305
ITAMSAT 1 23 Oct 05:32:25 05:37:41 78° 289° (WNW) 05:42:55 435.822/435.867
STRAND 1 23 Oct 05:35:43 05:38:32 15° 48° (NE) 05:41:21 437.568
Gurwin Techsat 1B 23 Oct 05:49:25 05:51:44 13° 316° (NW) 05:54:04 435.225
KKS-1 23 Oct 06:02:29 06:06:36 36° 263° (W) 06:10:45 437.445
XW-2B 23 Oct 06:06:51 06:07:41 11° 85° (E) 06:08:31 145.730 - 145.750
CUTE-I 23 Oct 06:22:39 06:26:17 18° 87° (E) 06:29:55 437.470
STARS 23 Oct 06:26:57 06:31:11 46° 260° (W) 06:35:28 437.465
XW-2C 23 Oct 06:28:48 06:31:25 18° 90° (E) 06:34:02 145.795 - 145.815
DOVE 4 23 Oct 06:48:30 06:53:29 84° 286° (WNW) 06:58:41 437.250
FO-29 23 Oct 06:55:35 06:59:00 17° 44° (NE) 07:02:37 435.910
AO-7 23 Oct 06:57:03 07:04:37 41° 310° (NW) 07:12:12 .
KAITUO 1B 23 Oct 07:03:53 07:07:10 29° 95° (E) 07:10:25 145.475/437.950
NO-84 23 Oct 07:04:07 07:08:20 76° 7° (N) 07:12:18 435.350 FM
O/OREOS (USA 219) 23 Oct 07:06:49 07:10:44 28° 254° (WSW) 07:14:37 437.305
XW-2F 23 Oct 07:10:29 07:14:04 42° 99° (E) 07:17:37 145.980 - 146.000
STRAND 1 23 Oct 07:11:43 07:16:48 63° 69° (ENE) 07:21:55 437.568
SO-50 23 Oct 07:12:11 07:16:26 44° 125° (SE) 07:20:45 436.795
ITAMSAT 1 23 Oct 07:12:56 07:16:24 18° 310° (NW) 07:19:52 435.822/435.867
NUDT-PHONESAT 23 Oct 07:13:11 07:16:35 35° 97° (E) 07:19:57 437.300
RS-15 23 Oct 07:15:35 07:27:40 58° 22° (NNE) 07:39:10 29.354- 29.394
LilacSat-2 23 Oct 07:21:45 07:25:32 64° 102° (ESE) 07:29:16 437.200
YUBILEINY 23 Oct 07:22:20 07:24:29 11° 62° (ENE) 07:26:38 435.215
XW-2D 23 Oct 07:25:08 07:28:54 67° 102° (ESE) 07:32:36 145.860 - 145.880
PCSat 23 Oct 07:36:00 07:39:45 19° 108° (ESE) 07:43:29 145.827
XW-2B 23 Oct 07:38:42 07:42:29 88° 104° (ESE) 07:46:14 145.730 - 145.750
HO-68 23 Oct 07:41:58 07:48:28 35° 94° (E) 07:54:56 435.675
CUTE-I 23 Oct 08:01:40 08:07:05 89° 287° (WNW) 08:12:29 437.470
XW-2C 23 Oct 08:02:15 08:05:54 52° 290° (WNW) 08:09:33 145.795 - 145.815
XW-2A 23 Oct 08:02:36 08:04:26 14° 89° (E) 08:06:14 145.665 - 145.685
CUBEBUG 2 23 Oct 08:14:28 08:18:46 35° 95° (E) 08:22:55 437.445
ZACube-1 23 Oct 08:18:30 08:20:52 14° 85° (E) 08:23:13 437.345
CUTE 1.7 + AOD 2 23 Oct 08:19:56 08:24:06 58° 100° (E) 08:28:16 437.475
SEEDS 23 Oct 08:21:25 08:25:22 40° 97° (E) 08:29:18 437.485
DOVE 4 23 Oct 08:27:14 08:30:33 18° 305° (NW) 08:33:58 437.250
AAUSAT CUBESAT 2 23 Oct 08:36:33 08:40:09 28° 94° (E) 08:43:43 437.432
FO-29 23 Oct 08:37:35 08:42:55 64° 67° (ENE) 08:48:51 435.910
KAITUO 1B 23 Oct 08:37:52 08:41:09 30° 294° (WNW) 08:44:24 145.475/437.950
NO-84 23 Oct 08:41:42 08:45:43 55° 208° (SSW) 08:49:27 435.350 FM
XW-2F 23 Oct 08:45:01 08:47:59 23° 298° (WNW) 08:50:55 145.980 - 146.000
UWE-3 23 Oct 08:46:23 08:50:42 41° 97° (E) 08:54:51 435.000/436.395/437.385
NUDT-PHONESAT 23 Oct 08:47:15 08:50:20 26° 296° (WNW) 08:53:24 437.300
Oscar 11 23 Oct 08:49:37 08:52:32 17° 88° (E) 08:55:25 .
AO-7 23 Oct 08:50:20 08:55:21 18° 335° (NNW) 09:00:22 .
STRAND 1 23 Oct 08:52:12 08:56:24 25° 269° (W) 09:00:38 437.568
SO-50 23 Oct 08:52:37 08:56:57 45° 327° (NNW) 09:01:19 436.795
LilacSat-2 23 Oct 08:56:55 08:59:25 17° 301° (WNW) 09:01:53 437.200
XW-2D 23 Oct 09:00:16 09:02:39 16° 302° (WNW) 09:05:01 145.860 - 145.880
UNISAT 6 23 Oct 09:06:30 09:10:43 34° 63° (ENE) 09:14:59 437.425
YUBILEINY 23 Oct 09:10:45 09:18:51 46° 86° (E) 09:27:00 435.215
XW-2B 23 Oct 09:14:17 09:16:06 13° 304° (NW) 09:17:54 145.730 - 145.750
PCSat 23 Oct 09:16:58 09:22:25 85° 128° (SE) 09:27:53 145.827
PRISM 23 Oct 09:18:09 09:21:11 21° 58° (ENE) 09:24:16 437.425
TIGRISAT 23 Oct 09:20:14 09:24:38 41° 65° (ENE) 09:29:03 435.000
RS-15 23 Oct 09:28:56 09:41:01 78° 232° (SW) 09:52:26 29.354- 29.394
AO-73 23 Oct 09:29:29 09:33:47 52° 100° (E) 09:37:57 145.935
HO-68 23 Oct 09:29:33 09:36:42 66° 295° (WNW) 09:43:49 435.675
XW-2A 23 Oct 09:34:11 09:37:29 55° 288° (WNW) 09:40:45 145.665 - 145.685
DELFI C3 23 Oct 09:38:08 09:39:52 12° 86° (E) 09:41:35 145.870
CUTE-I 23 Oct 09:42:35 09:46:31 21° 308° (NW) 09:50:26 437.470
nSIGHT-1 23 Oct 09:44:22 09:45:51 13° 143° (SE) 09:47:21 .
CUBEBUG 2 23 Oct 09:51:05 09:55:24 38° 295° (WNW) 09:59:36 437.445
ZACube-1 23 Oct 09:53:23 09:57:50 86° 286° (WNW) 10:02:08 437.345
Max Valier Satellite 23 Oct 09:54:47 09:56:22 12° 87° (E) 09:57:57 145.860
CUTE 1.7 + AOD 2 23 Oct 09:56:25 09:59:37 21° 300° (WNW) 10:02:49 437.475
SEEDS 23 Oct 09:57:21 10:00:57 29° 297° (WNW) 10:04:33 437.485
AAUSAT CUBESAT 2 23 Oct 10:11:51 10:15:42 39° 293° (WNW) 10:19:34 437.432
NO-84 23 Oct 10:20:06 10:22:23 15° 228° (SW) 10:24:33 435.350 FM
UWE-3 23 Oct 10:23:02 10:27:03 31° 297° (WNW) 10:30:57 435.000/436.395/437.385
ISS 23 Oct 10:23:41 10:26:10 20° 149° (SSE) 10:28:39 437.550
FO-29 23 Oct 10:24:10 10:28:39 26° 272° (W) 10:33:31 435.910
Oscar 11 23 Oct 10:24:50 10:29:09 69° 288° (WNW) 10:33:25 .
AIST 2D 23 Oct 10:27:25 10:30:10 22° 63° (ENE) 10:32:55 435.315
SO-50 23 Oct 10:34:49 10:38:25 22° 351° (N) 10:42:03 436.795
AO-7 23 Oct 10:41:44 10:44:58 13° 3° (N) 10:48:13 .
UNISAT 6 23 Oct 10:42:56 10:47:22 41° 263° (W) 10:51:51 437.425
PRISM 23 Oct 10:52:08 10:56:08 58° 258° (WSW) 11:00:10 437.425
TIGRISAT 23 Oct 10:57:08 11:01:23 34° 265° (W) 11:05:41 435.000
PCSat 23 Oct 11:01:34 11:06:25 32° 331° (NNW) 11:11:18 145.827
EO-79 23 Oct 11:02:22 11:05:56 27° 61° (ENE) 11:09:33 145.935-145.965
AO-73 23 Oct 11:06:12 11:09:45 24° 300° (WNW) 11:13:12 145.935
YUBILEINY 23 Oct 11:07:03 11:15:34 56° 291° (WNW) 11:24:11 435.215
POLYITAN 1 23 Oct 11:07:49 11:11:32 29° 62° (ENE) 11:15:16 437.675
EO-88 23 Oct 11:10:08 11:13:43 52° 101° (E) 11:17:16 145.990 - 145.960
DELFI C3 23 Oct 11:11:13 11:15:12 86° 285° (WNW) 11:19:11 145.870
BEESAT 3 23 Oct 11:16:40 11:18:09 12° 111° (ESE) 11:19:37 437.485
HO-68 23 Oct 11:18:06 11:23:17 22° 318° (NW) 11:28:27 435.675
nSIGHT-1 23 Oct 11:18:30 11:21:30 38° 162° (SSE) 11:24:31 .
ESTCUBE 1 23 Oct 11:19:57 11:21:11 11° 84° (E) 11:22:26 437.505/2401.250
Oscar 19 23 Oct 11:24:02 11:25:50 12° 44° (NE) 11:27:39 437.125/150
Max Valier Satellite 23 Oct 11:27:01 11:30:43 76° 286° (WNW) 11:34:21 145.860
QB50P2 23 Oct 11:27:52 11:31:58 46° 67° (ENE) 11:36:05 145.880/145.840
NANOSAT C BR1 23 Oct 11:28:00 11:31:58 39° 66° (ENE) 11:35:58 145.865
ZACube-1 23 Oct 11:30:51 11:33:26 16° 306° (NW) 11:36:02 437.345
BUGSAT 1 23 Oct 11:34:09 11:36:40 16° 54° (NE) 11:39:11 437.445
DUCHIFAT 1 23 Oct 11:36:54 11:40:55 41° 67° (ENE) 11:44:57 145.980
RS-15 23 Oct 11:42:20 11:51:32 28° 259° (W) 12:00:25 29.354- 29.394
LO-87 23 Oct 11:50:00 11:53:00 24° 93° (E) 11:56:00 145.935 - 145.965
ISS 23 Oct 11:59:00 12:02:11 50° 168° (SSE) 12:05:22 437.550
AIST 2D 23 Oct 11:59:52 12:03:10 38° 262° (W) 12:06:29 435.315
Oscar 11 23 Oct 12:02:38 12:04:32 13° 308° (NW) 12:06:25 .
M-CUBED/EXP-1 PRIME 23 Oct 12:07:18 12:09:12 15° 51° (NE) 12:11:06 437.505
SO-50 23 Oct 12:16:27 12:20:12 25° 15° (NNE) 12:24:01 436.795
Gurwin Techsat 1B 23 Oct 12:17:36 12:21:28 21° 52° (NE) 12:25:20 435.225
AO-7 23 Oct 12:29:10 12:34:44 20° 30° (NNE) 12:40:17 .
VELOX 1 23 Oct 12:32:24 12:33:29 11° 84° (E) 12:34:34 145.980
AO-85 23 Oct 12:36:02 12:38:08 14° 113° (ESE) 12:40:17 145.980
EO-79 23 Oct 12:37:23 12:41:31 46° 261° (W) 12:45:41 145.935-145.965
BEESAT 2 23 Oct 12:42:37 12:45:54 24° 119° (ESE) 12:49:12 435.950
POLYITAN 1 23 Oct 12:43:07 12:47:11 41° 262° (W) 12:51:18 437.675
EO-88 23 Oct 12:44:28 12:47:03 19° 300° (WNW) 12:49:37 145.990 - 145.960
DELFI C3 23 Oct 12:47:21 12:49:22 14° 305° (NW) 12:51:22 145.870
PCSat 23 Oct 12:47:25 12:51:26 20° 357° (N) 12:55:27 145.827
BEESAT 3 23 Oct 12:50:58 12:54:57 69° 131° (SE) 12:58:59 437.485
ESTCUBE 1 23 Oct 12:54:20 12:58:50 71° 103° (ESE) 13:03:19 437.505/2401.250
nSIGHT-1 23 Oct 12:54:23 12:57:33 59° 180° (S) 13:00:43 .
SPROUT 23 Oct 12:57:33 13:01:08 25° 93° (E) 13:04:40 437.525
Oscar 19 23 Oct 12:59:06 13:04:02 48° 65° (ENE) 13:08:59 437.125/150
Max Valier Satellite 23 Oct 13:02:47 13:03:52 11° 306° (NW) 13:04:58 145.860
NANOSAT C BR1 23 Oct 13:04:00 13:07:46 30° 265° (W) 13:11:34 145.865
QB50P2 23 Oct 13:04:21 13:07:57 26° 267° (W) 13:11:33 145.880/145.840
BUGSAT 1 23 Oct 13:07:11 13:11:25 88° 69° (ENE) 13:15:42 437.445
YUBILEINY 23 Oct 13:09:05 13:14:49 19° 318° (NW) 13:20:36 435.215
DUCHIFAT 1 23 Oct 13:13:02 13:16:43 28° 266° (W) 13:20:25 145.980
LO-87 23 Oct 13:23:09 13:26:32 36° 293° (WNW) 13:29:53 145.935 - 145.965
DX 1 23 Oct 13:29:04 13:29:37 10° 84° (E) 13:30:11 434.975-435.025
ISS 23 Oct 13:35:16 13:38:28 54° 189° (S) 13:41:41 437.550
M-CUBED/EXP-1 PRIME 23 Oct 13:40:01 13:43:17 64° 251° (WSW) 13:46:32 437.505
ITAMSAT 1 23 Oct 13:41:37 13:44:19 14° 46° (NE) 13:47:02 435.822/435.867
Gurwin Techsat 1B 23 Oct 13:55:28 14:00:47 90° 68° (ENE) 14:06:10 435.225
SO-50 23 Oct 13:56:59 14:01:31 58° 38° (NE) 14:06:06 436.795
VELOX 1 23 Oct 14:06:18 14:10:46 70° 104° (ESE) 14:15:13 145.980
AO-85 23 Oct 14:13:55 14:17:51 86° 134° (SE) 14:21:59 145.980
AO-7 23 Oct 14:17:53 14:25:45 50° 55° (NE) 14:33:37 .
BEESAT 2 23 Oct 14:19:19 14:23:20 63° 319° (NW) 14:27:24 435.950
BEESAT 3 23 Oct 14:29:15 14:32:51 30° 332° (NNW) 14:36:27 437.485
nSIGHT-1 23 Oct 14:30:37 14:33:33 34° 201° (SSW) 14:36:30 .
ESTCUBE 1 23 Oct 14:31:56 14:35:12 20° 303° (WNW) 14:38:29 437.505/2401.250
PCSat 23 Oct 14:31:58 14:36:35 27° 23° (NNE) 14:41:10 145.827
SPROUT 23 Oct 14:33:05 14:37:15 48° 292° (WNW) 14:41:23 437.525
Oscar 19 23 Oct 14:38:55 14:43:33 33° 265° (W) 14:48:12 437.125/150
BUGSAT 1 23 Oct 14:45:17 14:47:24 13° 274° (W) 14:49:32 437.445
50 SAT 23 Oct 14:51:17 14:54:36 70° 103° (ESE) 14:57:54 437.505
DX 1 23 Oct 15:02:17 15:06:39 68° 104° (ESE) 15:11:02 434.975-435.025
MOZHAYETS 4 23 Oct 15:08:12 15:10:05 12° 84° (E) 15:11:57
ISS 23 Oct 15:11:51 15:14:34 24° 208° (SSW) 15:17:18 437.550
ITAMSAT 1 23 Oct 15:17:42 15:22:48 58° 67° (ENE) 15:27:57 435.822/435.867
UKube-1 23 Oct 15:19:27 15:23:48 67° 104° (ESE) 15:28:06 .
SO-50 23 Oct 15:37:42 15:41:48 32° 239° (WSW) 15:45:56 436.795
Gurwin Techsat 1B 23 Oct 15:37:59 15:41:30 18° 273° (W) 15:45:02 435.225
VELOX 1 23 Oct 15:43:31 15:46:47 20° 303° (WNW) 15:50:03 145.980
AO-85 23 Oct 15:55:18 15:58:44 27° 337° (NNW) 16:02:22 145.980
BEESAT 2 23 Oct 15:58:31 16:01:46 22° 341° (NNW) 16:05:01 435.950
nSIGHT-1 23 Oct 16:08:26 16:09:09 11° 219° (SW) 16:09:52 .
BEESAT 3 23 Oct 16:08:45 16:11:31 17° 355° (N) 16:14:15 437.485
